Regional Weather Roundup
Issued by NWS

Home | Current Version | Previous Version | Text Only | Print | Product List | Glossary On
Versions: 1 2 3 4 5 6 7 8 9 10 11 12 13 14 15 16 17 18 19 20 21 22 23 24 25 26 27 28 29 30 31 32 33 34 35 36 37 38 39 40 41 42 43 44 45 46 47 48 49 50
000
ASUS44 KLIX 010410
RWRLA
LOUISIANA WEATHER ROUNDUP
NATIONAL WEATHER SERVICE NEW ORLEANS LA
1000 PM CST SAT FEB 28 2015

NOTE: "FAIR" INDICATES FEW OR NO CLOUDS BELOW 12,000 FEET WITH NO
      SIGNIFICANT WEATHER AND/OR OBSTRUCTIONS TO VISIBILITY.
      SKY/WX - SKY CONDITION AND SIGNIFICANT WEATHER.
      TMP - AIR TEMPERATURE.    DP   - DEWPOINT TEMPERATURE.
      RH  - RELATIVE HUMIDITY.  PRES - PRESSURE.
      HX  - HEAT INDEX.         WCI  - WIND CHILL INDEX.

*  THESE STATIONS ARE NOT NWS OR FAA STATIONS AND ARE NOT UNDER
   NWS QUALITY CONTROL.

LAZ040-048-061>063-065-066-069-010500-
SOUTHEAST LOUISIANA

CITY           SKY/WX    TMP DP  RH WIND       PRES   REMARKS
N.O. AUDUBON     N/A     57  55  94 MISG        N/A
N.O. INTL ARPT PTCLDY    57  51  80 E10       30.34S
N.O. LAKEFRONT PTCLDY    57  51  80 E15       30.34F
SLIDELL        CLEAR     54  51  90 NE5       30.36R
BATON ROUGE    PTCLDY    56  49  77 E8        30.32S
BOOTHVILLE     CLOUDY    57  56  96 E10       30.34S FOG
BELLE CHASSE   MOCLDY    57  51  80 E9        30.34R
BOGALUSA*        N/A     58  49  73 SE3       30.39R
GALLIANO*      CLOUDY    58  55  88 NE5       30.34R
NEW ROADS*     FAIR      55  46  72 E6        30.33R
GONZALES*      FAIR      57  52  84 E8        30.32F
HAMMOND*       CLEAR     52  46  82 CALM      30.38R
HOUMA*         MOCLDY    56  53  91 E12G18    30.33R
PORT FOURCHON* CLOUDY    59  55  88 E14G20    30.35F FOG

$$

LAZ041-044-053-054-010500-
SOUTHWEST LOUISIANA

CITY           SKY/WX    TMP DP  RH WIND       PRES   REMARKS
LAKE CHARLES   MOCLDY    56  47  71 E6        30.27S
LAFAYETTE      MOCLDY    58  45  62 E8        30.29F
PATTERSON      MOCLDY    55  52  88 E8        30.33R
SALT POINT       N/A     57  52  83 E8        30.28F
NEW IBERIA     MOCLDY    58  49  72 E13       30.29F
CHENAULT AIRPK PTCLDY    54  46  75 NE3       30.28R

$$

LAZ027-028-010500-
CENTRAL LOUISIANA

CITY           SKY/WX    TMP DP  RH WIND       PRES   REMARKS
FORT POLK      NOT AVBL
ALEXANDRIA INT CLOUDY    50  39  66 E3        30.29R
ALEXANDRIA     CLOUDY    50  38  63 CALM      30.31R

$$

LAZ001-002-010500-
NORTHWEST LOUISIANA

CITY           SKY/WX    TMP DP  RH WIND       PRES   REMARKS
SHREVEPORT     CLOUDY    45  36  70 E5        30.30F
BARKSDALE AFB  CLOUDY    45  35  69 NE2       30.31S
DTN SHREVEPORT CLOUDY    45  33  63 CALM      30.31F

$$

LAZ014-016-010500-
NORTHEAST LOUISIANA

CITY           SKY/WX    TMP DP  RH WIND       PRES   REMARKS
MONROE         MOCLDY    43  37  79 N6        30.34R
TALLULAH       PTCLDY    48  37  65 CALM      30.32F

$$




USA.gov is the U.S. government's official web portal to all federal, state and local government web resources and services.